Regional Weather Roundup
Issued by NWS

Home | Current Version | Previous Version | Graphics & Text | Print | Product List | Glossary On
Versions: 1 2 3 4 5 6 7 8 9 10 11 12 13 14 15 16 17 18 19 20 21 22 23 24 25 26 27 28 29 30 31 32 33 34 35 36 37 38 39 40 41 42 43 44 45 46 47 48 49 50
000
ASUS43 KMPX 191610
RWRMN
WEATHER ROUNDUP FOR MINNESOTA
NATIONAL WEATHER SERVICE TWIN CITIES/CHANHASSEN MN
1000 AM CST SUN FEB 19 2017


NOTE: "FAIR" INDICATES FEW OR NO CLOUDS BELOW 12,000 FEET WITH NO
SIGNIFICANT WEATHER AND/OR OBSTRUCTIONS TO VISIBILITY. N/A MEANS
CURRENT SKY AND/OR WEATHER CONDITIONS ARE NOT AVAILABLE.

MNZ060>063-068>070-191700-
   Twin Cities Metro

CITY           SKY/WX    TMP DP  RH WIND       PRES   REMARKS
TWIN CITIES    PTSUNNY   46  37  71 SE7       29.95F
ST PAUL        MOSUNNY   43  38  82 S9        29.97F
CRYSTAL        MOSUNNY   49  35  58 SE8       29.93F
BLAINE         MOSUNNY   52  39  62 SE7       29.94F
LAKEVILLE      CLOUDY    41  39  93 SE3       29.94F
EDEN PRAIRIE   CLOUDY    47  38  71 SE9       29.92F
SOUTH ST PAUL  MOSUNNY   42  37  79 SE7       29.96S
LAKE ELMO      FAIR      46  37  71 SE5       29.97S
$$
MNZ001>005-007-008-013>017-022>024-027-028-191700-
   Northwest Minnesota

CITY           SKY/WX    TMP DP  RH WIND       PRES   REMARKS
BEMIDJI        MOSUNNY   36  32  84 SE8       29.87F
HALLOCK        CLOUDY    37  32  81 E15       29.79F
ROSEAU         CLOUDY    36  30  80 E6        29.86F
WARROAD        CLOUDY    34  28  80 E8        29.88F WCI  27
THIEF RVR FALL PTSUNNY   36  32  85 E15       29.81F
CROOKSTON      CLOUDY    41  36  81 SE15      29.78F
FOSSTON        PTSUNNY   39  34  81 SE16G22   29.81F
DETROIT LAKES  MOSUNNY   43  36  75 SE15      29.81F
MOORHEAD       CLOUDY    46  39  76 SE14      29.77S
PARK RAPIDS    CLOUDY    42  31  64 SE12      29.87S
MAHNOMEN       FAIR      42  36  78 SE14G22   29.80F
$$
MNZ006-009>011-018-025>026-191700-
   North Central Minnesota

CITY           SKY/WX    TMP DP  RH WIND       PRES   REMARKS
BAUDETTE       CLOUDY    35  29  78 SE10      29.89S WCI  27
FLAG ISLAND    MOSUNNY   34  28  80 E10       29.90R WCI  26
INTL FALLS     PTSUNNY   35  29  78 SE8       29.94S WCI  29
WASKISH        MOSUNNY   41  32  70 SE8       29.89S
BIG FORK       CLOUDY    37  30  75 SE3       29.92F
LONGVILLE      MOSUNNY   43  30  61 SE6       29.89F
GRAND RAPIDS   CLOUDY    39  30  70 SE6       29.94F
CRANE LAKE     CLOUDY    32  30  93 CALM      29.98S
ORR            CLOUDY    37  28  70 CALM      29.92F
COOK           MOSUNNY   37  30  75 SE5       29.95F
WALKER         FAIR      39  31  73 E6        29.88F
$$
MNZ012-019>021-037-191700-
   Northeast Minnesota

CITY           SKY/WX    TMP DP  RH WIND       PRES   REMARKS
DULUTH         MOSUNNY   39  32  76 SE10      29.96S
ELY            CLOUDY    36  30  80 CALM      29.96F
HIBBING        PTSUNNY   35  32  88 SE7       29.95F WCI  29
EVELETH        MOSUNNY   38  30  72 E3        29.96F
DULUTH HARBOR  MOSUNNY   36  32  87 CALM      30.00S
TWO HARBORS    CLOUDY    43  34  70 E6        29.97S
GRAND MARAIS     N/A     39  32  76 SE5       30.01R
G MARAIS ARPRT CLOUDY    36  25  64 CALM      29.98R
$$
MNZ029>031-032-039>041-046>048-054>057-064-191700-
   West Central Minnesota

CITY           SKY/WX    TMP DP  RH WIND       PRES   REMARKS
FERGUS FALLS   MOSUNNY   45  37  76 SE13G20   29.82F
WHEATON        CLOUDY    39  37  93 SE15      29.78F
MORRIS         CLOUDY    45  41  87 SE16      29.79F
ALEXANDRIA     MOSUNNY   42  38  85 SE13      29.85S
ELBOW LAKE     FAIR      47  39  76 SE15G21   29.80F
WADENA         MOSUNNY   39  36  87 E9        29.85F
GLENWOOD       MOSUNNY   39  39 100 E12       29.85S FOG
APPLETON       PTSUNNY   43  37  81 SE12      29.79F
BENSON         MOSUNNY   46  37  71 S12G18    29.82F
ORTONVILLE     PTSUNNY   41  37  87 SE9       29.77F
WILLMAR        FAIR      45  41  87 SE14G20   29.84F
$$
MNZ033>034-036-042>043-049>051-058-059-191700-
   Central Minnesota

CITY           SKY/WX    TMP DP  RH WIND       PRES   REMARKS
ST CLOUD       CLOUDY    44  40  85 E6        29.91F
SAUK CENTRE    FAIR      40  38  96 E7        29.87F
PAYNESVILLE    MOSUNNY   42  42 100 SE10      29.88S
AITKIN         CLOUDY    46  30  53 SE6       29.91S
PINE RIVER     CLOUDY    41  34  75 SE7       29.94S
BRAINERD       MOSUNNY   41  34  76 SE7       29.91F
STAPLES        MOSUNNY   39  36  87 SE6       29.88S
LONG PRAIRIE   FAIR      41  37  87 E7        29.88S
LITTLE FALLS   MOSUNNY   41  36  81 SE7       29.90F
LITCHFIELD     MOSUNNY   45  43  93 SE9       29.89S
BUFFALO        MOSUNNY   48  38  69 SE7       29.92F
MAPLE LAKE     CLOUDY    45  41  83 SE5       29.91F
HUTCHINSON     CLOUDY    43  41  91 E8        29.90S
$$
MNZ037-044-045-052-053-191700-
   East Central Minnesota

CITY           SKY/WX    TMP DP  RH WIND       PRES   REMARKS
PRINCETON      MOSUNNY   45  41  87 E6        29.93F
MORA           MOSUNNY   39  36  87 SE3       29.97S
CAMBRIDGE      MOSUNNY   46  36  66 E5        29.93F
RUSH CITY      MOSUNNY   43  37  81 SE3       29.96S
MOOSE LAKE     MOSUNNY   43  32  65 CALM      29.95S
HINCKLEY       FAIR      43  37  81 E5        29.96S
CLOQUET        CLOUDY    39  30  70 SE8       29.95F
MCGREGOR       CLOUDY    43  32  65 SE6       29.94S
$$
MNZ071>073-080-081-089-090-097-098-191700-
   Southwest Minnesota

CITY           SKY/WX    TMP DP  RH WIND       PRES   REMARKS
MONTEVIDEO     MOSUNNY   45  41  87 S12       29.82S
GRANITE FALLS  MOSUNNY   46  40  79 SE13      29.83S
CANBY          PTSUNNY   48  40  74 E7        29.79R
MARSHALL       CLOUDY    49  40  71 S16       29.80F
REDWOOD FALLS  CLOUDY    44  38  79 SE16      29.83F
OLIVIA         CLOUDY    43  37  81 SE14      29.83F
PIPESTONE      CLOUDY    46  36  66 S10G16    29.78F
WINDOM         CLOUDY    48  39  71 SE13G18   29.84F
WORTHINGTON    CLOUDY    46  39  76 S15       29.84F
JACKSON        CLOUDY    43  36  75 S14       29.86F
TRACY          CLOUDY    49  41  72 S14G22    29.81F
SLAYTON        MOSUNNY   44  40  85 SE12      29.82S
$$
MNZ065>067-074>077-082>085-091>093-191700-
   South Central Minnesota

CITY           SKY/WX    TMP DP  RH WIND       PRES   REMARKS
MANKATO          N/A     45  40  82 SE13      29.92R
NEW ULM        SUNNY     45  39  81 SE14      29.88F
ST JAMES       SUNNY     45  39  81 SE13      29.89F
FAIRMONT       SUNNY     44  39  82 S14       29.89F
GLENCOE        CLOUDY    43  41  93 SE7       29.91R
FARIBAULT      CLOUDY    48  41  76 SE7       29.94S
OWATONNA       CLOUDY    46  39  76 SE12      29.94S
WASECA         CLOUDY    43  39  87 SE9       29.95R
ALBERT LEA     CLOUDY    43  43 100 SE9       29.95S
$$
MNZ078>079-086>088-094>096-191700-
   Southeast Minnesota

CITY           SKY/WX    TMP DP  RH WIND       PRES   REMARKS
ROCHESTER      MOSUNNY   43  38  82 S14       29.97F
RED WING       MOSUNNY   39  36  87 SE7       29.97F
STANTON        CLOUDY    46  39  75 SE7       29.93F
DODGE CENTER   MOSUNNY   41  37  87 SE10      29.96F
WINONA         SUNNY     39  34  81 SE3       30.02S
AUSTIN         CLOUDY    43  39  87 SE6       29.97S
PRESTON        MOSUNNY   44  36  75 S8        29.99F
$$
ABBREVIATIONS USED IN REMARKS
   TC - TEMPERATURES IN CELSIUS
  WCI - WIND CHILL INDEX
   HX - HEAT INDEX
  VSB - VISIBILITY
$$




USA.gov is the U.S. government's official web portal to all federal, state and local government web resources and services.